When you browse on this site, cookies collect data to enhance your experience and personalize the content and advertising you see.
Visit our Privacy Policy to learn more. By continuing to use the site, you agree to this use of cookies and data.
  • In Sweden
  • List of Countries
  • For 7 days
  • Water Temperature
  • Weather Map
  • Weather Widgets
  • user-avatar
    Login

    Hourly Weather Meknes

    Today, 18 February, Tuesday

    Time Temperature Precipitation Wind Pressure Humidity
    00:00 +9°C° 0 mm 0 mps 723 mmHg 92%
    01:00 +9°C° 0 mm 0 mps 723 mmHg 91%
    02:00 +9°C° 0 mm 0 mps 723 mmHg 91%
    03:00 +9°C° 0 mm 0 mps 723 mmHg 90%
    04:00 +8°C° 0 mm 0 mps 722 mmHg 89%
    05:00 +8°C° 0 mm 0 mps 722 mmHg 89%
    06:00 +8°C° 0 mm 0 mps 722 mmHg 88%
    07:00 +10°C° 0 mm 0 mps 723 mmHg 85%
    08:00 +12°C° 0 mm 0 mps 723 mmHg 81%
    09:00 +14°C° 0 mm 1 mps 724 mmHg 77%
    10:00 +16°C° 0 mm 1 mps 724 mmHg 71%
    11:00 +19°C° 0 mm 1 mps 724 mmHg 65%
    12:00 +19°C° 0 mm 2 mps 724 mmHg 58%
    13:00 +20°C° 0 mm 2 mps 724 mmHg 58%
    14:00 +20°C° 0 mm 2 mps 723 mmHg 58%
    15:00 +20°C° 0 mm 3 mps 723 mmHg 58%
    16:00 +18°C° 0 mm 2 mps 723 mmHg 67%
    17:00 +16°C° 0 mm 2 mps 722 mmHg 77%
    18:00 +15°C° 0 mm 2 mps 722 mmHg 87%
    19:00 +14°C° 0 mm 1 mps 722 mmHg 90%
    20:00 +13°C° 0 mm 1 mps 722 mmHg 92%
    21:00 +11°C° 0 mm 0 mps 723 mmHg 94%
    22:00 +11°C° 0 mm 0 mps 723 mmHg 95%
    23:00 +11°C° 0 mm 0 mps 722 mmHg 95%

    Tomorrow, 19 February, Wednesday

    Time Temperature Precipitation Wind Pressure Humidity
    00:00 +10°C° 0 mm 0 mps 722 mmHg 95%
    01:00 +10°C° 0 mm 0 mps 722 mmHg 96%
    02:00 +10°C° 0 mm 0 mps 722 mmHg 96%
    03:00 +10°C° 0 mm 0 mps 721 mmHg 96%
    04:00 +11°C° 0 mm 1 mps 721 mmHg 96%
    05:00 +12°C° 0 mm 1 mps 721 mmHg 96%
    06:00 +12°C° 0 mm 1 mps 721 mmHg 96%
    07:00 +13°C° 0 mm 1 mps 721 mmHg 91%
    08:00 +14°C° 0 mm 2 mps 722 mmHg 87%
    09:00 +14°C° 0 mm 2 mps 722 mmHg 82%
    10:00 +16°C° 0 mm 3 mps 722 mmHg 75%
    11:00 +18°C° 0 mm 3 mps 722 mmHg 68%
    12:00 +19°C° 0 mm 3 mps 721 mmHg 61%
    13:00 +20°C° 0 mm 4 mps 721 mmHg 58%
    14:00 +20°C° 0 mm 4 mps 721 mmHg 56%
    15:00 +21°C° 0 mm 4 mps 720 mmHg 54%
    16:00 +19°C° 0 mm 3 mps 720 mmHg 60%
    17:00 +18°C° 0 mm 3 mps 719 mmHg 66%
    18:00 +16°C° 0 mm 2 mps 719 mmHg 73%
    19:00 +15°C° 0.1 mm 2 mps 719 mmHg 74%
    20:00 +14°C° 0.1 mm 2 mps 720 mmHg 75%
    21:00 +14°C° 0.1 mm 2 mps 720 mmHg 77%
    22:00 +14°C° 0.1 mm 2 mps 720 mmHg 75%
    23:00 +14°C° 0.1 mm 2 mps 720 mmHg 73%

    Day after tomorrow, 20 February, Thursday

    Time Temperature Precipitation Wind Pressure Humidity
    00:00 +14°C° 0.1 mm 2 mps 719 mmHg 71%
    01:00 +13°C° 0 mm 3 mps 719 mmHg 71%
    02:00 +13°C° 0 mm 3 mps 719 mmHg 70%
    03:00 +12°C° 0 mm 3 mps 718 mmHg 70%
    04:00 +12°C° 0 mm 3 mps 718 mmHg 69%
    05:00 +13°C° 0 mm 2 mps 718 mmHg 68%
    06:00 +13°C° 0 mm 2 mps 718 mmHg 67%
    07:00 +14°C° 0 mm 2 mps 718 mmHg 63%
    08:00 +16°C° 0 mm 2 mps 718 mmHg 59%
    09:00 +18°C° 0 mm 2 mps 719 mmHg 56%
    10:00 +19°C° 0 mm 2 mps 719 mmHg 51%
    11:00 +20°C° 0 mm 2 mps 719 mmHg 47%
    12:00 +23°C° 0 mm 2 mps 719 mmHg 42%
    13:00 +23°C° 0 mm 2 mps 719 mmHg 43%
    14:00 +23°C° 0 mm 2 mps 718 mmHg 45%
    15:00 +23°C° 0 mm 2 mps 718 mmHg 46%
    16:00 +19°C° 1.6 mm 3 mps 717 mmHg 57%
    17:00 +17°C° 1.6 mm 3 mps 717 mmHg 69%
    18:00 +13°C° 1.6 mm 4 mps 717 mmHg 81%
    19:00 +12°C° 0.2 mm 3 mps 717 mmHg 79%
    20:00 +13°C° 0.2 mm 2 mps 717 mmHg 78%
    21:00 +13°C° 0.2 mm 1 mps 718 mmHg 77%
    22:00 +13°C° 0.1 mm 1 mps 718 mmHg 76%
    23:00 +13°C° 0.1 mm 1 mps 718 mmHg 76%

    21 February, Friday

    Time Temperature Precipitation Wind Pressure Humidity
    00:00 +13°C° 0.1 mm 1 mps 718 mmHg 76%
    01:00 +12°C° 0 mm 1 mps 717 mmHg 78%
    02:00 +11°C° 0 mm 1 mps 717 mmHg 80%
    03:00 +10°C° 0 mm 1 mps 717 mmHg 82%
    04:00 +10°C° 0 mm 1 mps 717 mmHg 82%
    05:00 +10°C° 0 mm 1 mps 717 mmHg 83%
    06:00 +10°C° 0 mm 1 mps 717 mmHg 83%
    13:00 +21°C° 0 mm 5 mps 719 mmHg 45%
    14:00 +21°C° 0 mm 5 mps 718 mmHg 42%
    15:00 +22°C° 0 mm 6 mps 718 mmHg 39%
    16:00 +20°C° 0 mm 5 mps 718 mmHg 42%
    17:00 +19°C° 0 mm 5 mps 718 mmHg 44%
    18:00 +16°C° 0 mm 5 mps 718 mmHg 47%
    19:00 +15°C° 0 mm 5 mps 719 mmHg 48%
    20:00 +14°C° 0 mm 5 mps 719 mmHg 49%
    21:00 +13°C° 0 mm 4 mps 720 mmHg 50%
    22:00 +13°C° 0 mm 4 mps 720 mmHg 55%
    23:00 +12°C° 0 mm 4 mps 720 mmHg 59%

    22 February, Saturday

    Time Temperature Precipitation Wind Pressure Humidity
    00:00 +11°C° 0 mm 3 mps 720 mmHg 64%
    01:00 +11°C° 0 mm 3 mps 720 mmHg 65%
    02:00 +11°C° 0 mm 4 mps 720 mmHg 66%
    03:00 +10°C° 0 mm 4 mps 720 mmHg 67%
    04:00 +10°C° 0 mm 4 mps 720 mmHg 66%
    05:00 +10°C° 0 mm 4 mps 720 mmHg 66%
    06:00 +10°C° 0 mm 4 mps 720 mmHg 66%
    07:00 +11°C° 0 mm 4 mps 720 mmHg 64%
    08:00 +12°C° 0 mm 4 mps 721 mmHg 62%
    09:00 +14°C° 0 mm 4 mps 722 mmHg 60%
    10:00 +17°C° 0 mm 4 mps 722 mmHg 53%
    11:00 +19°C° 0 mm 4 mps 722 mmHg 46%
    12:00 +21°C° 0 mm 4 mps 722 mmHg 39%
    13:00 +22°C° 0 mm 4 mps 722 mmHg 38%
    14:00 +22°C° 0 mm 4 mps 721 mmHg 37%
    15:00 +23°C° 0 mm 5 mps 721 mmHg 35%
    16:00 +21°C° 0 mm 5 mps 721 mmHg 39%
    17:00 +19°C° 0 mm 4 mps 721 mmHg 43%
    18:00 +17°C° 0 mm 4 mps 721 mmHg 47%
    19:00 +17°C° 0 mm 4 mps 721 mmHg 46%
    20:00 +15°C° 0 mm 4 mps 721 mmHg 45%
    21:00 +14°C° 0 mm 4 mps 721 mmHg 44%
    22:00 +14°C° 0 mm 4 mps 722 mmHg 46%
    23:00 +14°C° 0 mm 4 mps 722 mmHg 49%

    23 February, Sunday

    Time Temperature Precipitation Wind Pressure Humidity
    00:00 +13°C° 0 mm 4 mps 722 mmHg 52%
    01:00 +13°C° 0 mm 4 mps 722 mmHg 52%
    02:00 +13°C° 0 mm 4 mps 721 mmHg 53%
    03:00 +12°C° 0 mm 4 mps 721 mmHg 53%
    04:00 +12°C° 0 mm 4 mps 721 mmHg 53%
    05:00 +12°C° 0 mm 4 mps 721 mmHg 52%
    06:00 +11°C° 0 mm 4 mps 721 mmHg 51%
    07:00 +13°C° 0 mm 4 mps 722 mmHg 52%
    08:00 +14°C° 0 mm 4 mps 722 mmHg 52%
    09:00 +16°C° 0 mm 3 mps 723 mmHg 53%
    10:00 +19°C° 0 mm 3 mps 723 mmHg 47%
    11:00 +21°C° 0 mm 3 mps 723 mmHg 41%
    12:00 +25°C° 0 mm 2 mps 723 mmHg 35%
    13:00 +25°C° 0 mm 3 mps 723 mmHg 35%
    14:00 +26°C° 0 mm 3 mps 722 mmHg 35%
    15:00 +27°C° 0 mm 3 mps 722 mmHg 35%
    16:00 +25°C° 0 mm 2 mps 722 mmHg 42%
    17:00 +23°C° 0 mm 2 mps 722 mmHg 48%
    18:00 +21°C° 0 mm 1 mps 722 mmHg 54%
    19:00 +20°C° 0 mm 1 mps 723 mmHg 51%
    20:00 +20°C° 0 mm 1 mps 723 mmHg 47%
    21:00 +20°C° 0 mm 1 mps 723 mmHg 43%
    22:00 +19°C° 0 mm 2 mps 723 mmHg 42%
    23:00 +19°C° 0 mm 2 mps 723 mmHg 40%
    Show more